Regional Weather Roundup
Issued by NWS Cleveland, OH

Home | Current Version | Previous Version | Graphics & Text | Print | Product List | Glossary Off
Versions: 1 2 3 4 5 6 7 8 9 10 11 12 13 14 15 16 17 18 19 20 21 22 23 24 25 26 27 28 29 30 31 32 33 34 35 36 37 38 39 40 41 42 43 44 45 46 47 48 49 50

000
ASUS41 KCLE 240010
RWRCLE
OHIO REGIONAL WEATHER ROUNDUP
NATIONAL WEATHER SERVICE CLEVELAND, OH
700 PM EST SUN NOV 23 2014

NOTE: "FAIR" INDICATES FEW OR NO CLOUDS BELOW 12,000 FEET WITH NO
SIGNIFICANT WEATHER AND/OR OBSTRUCTIONS TO VISIBILITY.

OHZ001>008-015>018-024>027-034-035-043-044-240100-
   NORTHWEST OHIO

CITY           SKY/WX    TMP DP  RH WIND       PRES   REMARKS
DEFIANCE       LGT RAIN  51  47  86 E7        29.50F
FINDLAY        LGT RAIN  57  44  62 SE18G29   29.51F
TOLEDO EXPRESS LGT RAIN  53  46  77 E10       29.52F
TOLEDO EXEC    LGT RAIN  52  45  77 SE9       29.55F
LIMA           LGT RAIN  57  45  64 SE21G31   29.48F
$$

OHZ009>014-019>023-028>033-038-089-240100-
   NORTHEAST OHIO

CITY           SKY/WX    TMP DP  RH WIND       PRES   REMARKS
CLE-HOPKINS    CLOUDY    58  45  62 SE18G26   29.63F
CLE-LAKEFRONT  CLOUDY    59  44  57 SE20G26   29.60F
CUY CO. ARPT   MOCLDY    59  46  63 SE16      29.64F
LORAIN-ELYRIA  CLOUDY    57  44  62 SE14G23   29.60F
ASHTABULA      CLOUDY    54  42  64 SE14G24   29.70F
AKRON-CANTON   CLOUDY    58  45  62 SE13      29.65F
WOOSTER        CLOUDY   N/A N/A N/A SE12      29.63F
MANSFIELD      LGT RAIN  55  46  71 SE18      29.60F
YOUNGSTOWN     CLOUDY    55  44  66 SE16      29.69F
$$

OHZ042-051>053-060>062-070>072-077>081-240100-
  SOUTHWEST OHIO

CITY           SKY/WX    TMP DP  RH WIND       PRES   REMARKS
CINC-COVINGTON HVY RAIN  56  51  84 SE22G32   29.46F
CINC-LUNKEN    RAIN      56  54  93 SE14G24   29.50F
HAMILTON       LGT RAIN  55  53  93 SE9G21    29.48F
DAYTON         RAIN      54  52  93 SE20      29.49F FOG
WRIGHT-PAT AFB LGT RAIN  55  52  90 SE15G23   29.49F
DAYTON GENERAL LGT RAIN  55  52  89 SE16G28   29.47F
WILMINGTON     LGT RAIN  53  50  89 SE21G31   29.50F
$$

OHZ036-037-039>041-045>050-054>059-063>069-073>076-082>088-240100-
  CENTRAL AND SOUTHEAST OHIO

CITY           SKY/WX    TMP DP  RH WIND       PRES   REMARKS
COLUMBUS       HVY RAIN  54  47  77 SE15G23   29.56F
OSU AIRPORT    RAIN      54  47  77 SE17G23   29.55F
BOLTON FIELD   RAIN      52  48  88 SE15G22   29.58F
RICKENBACK AFB DRIZZLE   53  47  81 SE12      29.58F
NEWARK         LGT RAIN  56  45  66 SE9       29.60F
MARION         LGT RAIN  53  45  74 SE17G25   29.57F
LANCASTER      LGT RAIN  55  48  77 SE15G25   29.61F
ZANESVILLE     LGT RAIN  57  45  64 SE9       29.64F
NEW PHILLY     LGT RAIN  60  47  61 SE12      29.66F
$$


USA.gov is the U.S. government's official web portal to all federal, state and local government web resources and services.